Weather in Tyryshkino

Russia / Kirov Oblast     57°26′11″N   46°57′24″E
temp.,
°C
wind,
m/s
gust,
m/s
humid.,
%
clouds,
%
prec.,
mm/h
press.,
hPa
HPBL,
m
12 april, mon
mon1200:000sw2298100 0.0 103519
03:00−1nnw119829 0.0 103710
06:00+1ne259966 0.0 1038100
09:00+3e2398100 0.0 1039170
12:00+6ese2393100 0.0 1039322
15:00+6ese3590100 0.0 1039325
18:00+4ese3797100 0.0 1039279
21:00+3se4897100 0.0 1039333
13 april, tue
tue1300:00+3ese3997100 0.0 1038272
03:00+3se31199100 0.0 1037264
06:00+3se3996100 0.0 1036216
09:00+7sse3791100 0.0 1034257
12:00+12s4783100 0.0 1033460
15:00+15s487395 0.0 1031832
18:00+12s388565 0.0 1030166
21:00+8s388973 0.0 1030127
14 april, wed
wed1400:00+7ssw398773 0.0 1030139
03:00+6ssw368777 0.0 103078
06:00+6s258345 0.0 102985
09:00+12s366126 0.0 1029283
12:00+16s46446 0.0 1027783
15:00+17ssw46417 0.0 10261036
18:00+13s23585 0.0 102446
21:00+9s37755 0.0 1024111
15 april, thu
thu1500:00+8s24855 0.0 102360
03:00+7s22905 0.0 102339
06:00+7ssw238944 0.0 102255
09:00+13ssw23665 0.0 1021345
12:00+17sw23505 0.0 10201103
15:00+18sw234266 0.0 10191612
18:00+15w11545 0.0 101811
21:00+11nw116358 0.0 101810
16 april, fri
fri1600:00+9nnw226985 0.0 101823
03:00+6nne379618 0.0 1018169
06:00+5nne3993100 0.0 1019300
09:00+9nne3574100 0.0 1019579
12:00+8nne567699 0.0 1020744
15:00+6nne3680100 0.0 1021677
18:00+8n37566 0.0 1021337
21:00+4n311645 0.0 1022322